[[{"header":{"parameterUnit":"m.s-1","parameterCategory":1,"la1":30.2992,"la2":30.254,"lo1":-89.0895,"lo2":-89.0443,"dy":0.0025,"dx":0.0025,"nx":19,"ny":19,"refTime":"2026-05-06T21:00:00:Z","depth":0,"parameterNumber":2,"parameterNumberName":"U-component_of_WINDS"},"data":[0,0,0,-3.863,-3.8631,-3.8638,-3.8638,-3.8696,-3.8697,0,0,0,0,0,0,0,0,0,0,0,-3.8655,-3.8656,-3.863,-3.8631,-3.8638,-3.8638,-3.8696,-3.8697,0,0,0,0,0,0,0,0,0,0,0,-3.8655,-3.8656,-3.8658,-3.8631,-3.8638,-3.8637,-3.8695,-3.8673,0,0,0,0,0,0,0,0,0,0,-3.8658,-3.8708,-3.8656,-3.8658,-3.8631,-3.8638,-3.8637,-3.8671,-3.8675,-3.8713,0,-3.8752,0,-3.8726,-3.8704,-3.8704,0,0,0,-3.8611,-3.8705,-3.8682,-3.8658,-3.8631,-3.8638,-3.8629,-3.8672,-3.8676,-3.8718,-3.8753,-3.8753,-3.8727,-3.8704,-3.8705,-3.8987,-3.8989,0,0,-3.861,-3.8672,-3.868,-3.8686,-3.8685,-3.8629,-3.8629,-3.8674,-3.8717,-3.8753,-3.8754,-3.8727,-3.8705,-3.8706,-3.8984,-3.8987,0,0,0,-3.8623,-3.8673,-3.8647,-3.8685,-3.8682,-3.863,-3.863,-3.8715,-3.8702,-3.8754,-3.8728,-3.8705,-3.8707,-3.8982,-3.8985,-3.9155,0,0,0,-3.8621,-3.8679,-3.8648,-3.8686,-3.8682,-3.8698,-3.8672,-3.8699,-3.8702,-3.8728,-3.8705,-3.8708,-3.8979,-3.8984,-3.9145,-3.9225,0,0,0,-3.8645,-3.8682,-3.8692,-3.8689,-3.8694,-3.8696,-3.8684,-3.8698,-3.8687,-3.8704,-3.8708,-3.8977,-3.8983,-3.9136,-3.921,-3.9316,0,0,0,-3.8689,-3.8844,-3.8696,-3.8859,-3.8694,-3.88,-3.8683,-3.876,-3.8795,-3.8706,-3.898,-3.8985,-3.9133,-3.92,-3.9307,-3.9416,-3.9467,0,0,-3.8919,-3.8874,-3.8965,-3.8832,-3.898,-3.8794,-3.8968,-3.8943,-3.889,-3.8958,-3.8964,-3.9148,-3.9209,-3.9314,-3.9735,-3.9776,0,0,0,-3.9059,-3.9125,-3.9151,-3.9186,-3.9169,-3.9161,-3.9103,-3.9094,-3.9148,-3.8936,-3.9213,-3.9248,-3.9307,-3.9356,-3.9392,-3.9438,-3.9011,-3.901,-3.9009,-3.9473,-3.9394,-3.954,-3.9462,-3.9498,-3.9436,-3.9458,-3.9435,-3.9347,-3.9414,-3.9434,-3.9698,-3.9759,-3.9784,-3.9834,-3.9486,-3.9486,-3.9487,-3.9487,-3.9802,-3.9883,-3.9761,-3.9858,-3.9775,-3.9857,-3.9804,-3.9739,-3.9803,-3.9677,-3.9726,-3.9594,-3.9832,-3.9871,-3.9499,-3.9497,-3.9496,-3.9495,-3.9494,-4.0064,-4.0089,-4.0074,-4.0115,-4.0157,-4.0074,-4.0141,-4.0064,-3.9992,-4.004,-4.0052,-4.0049,-4.0036,-4.0051,-4.0052,-4.0053,-4.0054,-4.0055,-4.0055,-4.0342,-4.0318,-4.0383,-4.0378,-4.039,-4.0396,-4.0335,-4.0346,-4.0338,-4.0276,-4.0276,-4.0182,-3.987,-3.9793,-4.0069,-4.0067,-4.0065,-4.0064,-4.0063,-4.0703,-4.0608,-4.0709,-4.0721,-4.0708,-4.0754,-4.0655,-4.0683,-4.068,-4.0716,-4.0612,-4.0394,-4.0343,-4.0314,-4.025,-4.0628,-4.0628,-4.0628,-4.0628,-4.0923,-4.0889,-4.0973,-4.0997,-4.1012,-4.0932,-4.1049,-4.1005,-4.0944,-4.0938,-4.0872,-4.078,-4.0755,-4.0719,-4.0682,-4.062,-4.1084,-4.1085,-4.1085,-4.1141,-4.1104,-4.1218,-4.1154,-4.1139,-4.1128,-4.1236,-4.127,-4.1182,-4.1102,-4.0931,-4.0912,-4.0763,-4.0718,-4.0634,-4.0578,-4.0463,0,0]},{"header":{"parameterUnit":"m.s-1","parameterCategory":1,"la1":30.2992,"la2":30.254,"lo1":-89.0895,"lo2":-89.0443,"dy":0.0025,"dx":0.0025,"nx":19,"ny":19,"refTime":"2026-05-06T21:00:00:Z","depth":0,"parameterNumber":3,"parameterNumberName":"V-component_of_WINDS"},"data":[0,0,0,-2.3507,-2.3506,-2.3431,-2.3431,-2.3335,-2.3334,0,0,0,0,0,0,0,0,0,0,0,-2.3534,-2.3533,-2.3508,-2.3506,-2.3431,-2.3431,-2.3335,-2.3334,0,0,0,0,0,0,0,0,0,0,0,-2.3534,-2.3534,-2.3533,-2.3506,-2.3431,-2.3431,-2.3335,-2.3391,0,0,0,0,0,0,0,0,0,0,-2.3463,-2.3493,-2.3534,-2.3533,-2.3505,-2.3431,-2.3431,-2.3393,-2.3387,-2.337,0,-2.336,0,-2.3346,-2.3328,-2.3328,0,0,0,-2.3502,-2.3498,-2.3474,-2.3533,-2.3505,-2.3431,-2.3464,-2.339,-2.3383,-2.3362,-2.3358,-2.3355,-2.3344,-2.3328,-2.3327,-2.3249,-2.3249,0,0,-2.3506,-2.3522,-2.3479,-2.347,-2.3486,-2.3466,-2.3461,-2.3386,-2.3381,-2.3358,-2.3352,-2.3343,-2.3327,-2.3326,-2.3249,-2.3249,0,0,0,-2.352,-2.3525,-2.3503,-2.3474,-2.3461,-2.3464,-2.3459,-2.3385,-2.3376,-2.3351,-2.3342,-2.3327,-2.3325,-2.3249,-2.3249,-2.3256,0,0,0,-2.3523,-2.3534,-2.3505,-2.3514,-2.3462,-2.3423,-2.3459,-2.3382,-2.3373,-2.3342,-2.3326,-2.3325,-2.325,-2.3249,-2.3257,-2.3256,0,0,0,-2.3537,-2.3535,-2.3526,-2.3515,-2.3484,-2.3424,-2.3411,-2.3379,-2.3367,-2.3328,-2.3324,-2.325,-2.3249,-2.3257,-2.3257,-2.3239,0,0,0,-2.3556,-2.3534,-2.3527,-2.3497,-2.3485,-2.343,-2.3411,-2.3369,-2.3337,-2.3326,-2.325,-2.3249,-2.3257,-2.3257,-2.3239,-2.3226,-2.3223,0,0,-2.3536,-2.3532,-2.3513,-2.3504,-2.3456,-2.344,-2.339,-2.3345,-2.3325,-2.3274,-2.3272,-2.3257,-2.3257,-2.3239,-2.3202,-2.3199,0,0,0,-2.3512,-2.3498,-2.3482,-2.3453,-2.3419,-2.3387,-2.3348,-2.333,-2.3287,-2.3304,-2.3246,-2.3245,-2.3234,-2.3227,-2.3225,-2.3212,-2.3247,-2.3247,-2.3247,-2.3506,-2.3483,-2.3449,-2.3416,-2.3388,-2.3346,-2.332,-2.3288,-2.3273,-2.3259,-2.3243,-2.3224,-2.3216,-2.3215,-2.3202,-2.3236,-2.3236,-2.3236,-2.3236,-2.3473,-2.3449,-2.3429,-2.3389,-2.3363,-2.3327,-2.3283,-2.3273,-2.3233,-2.3234,-2.3223,-2.3225,-2.3213,-2.32,-2.3236,-2.3236,-2.3236,-2.3236,-2.3236,-2.3466,-2.3451,-2.3431,-2.3385,-2.3351,-2.3316,-2.3279,-2.3256,-2.3234,-2.3223,-2.3202,-2.3202,-2.3197,-2.3215,-2.3215,-2.3215,-2.3215,-2.3215,-2.3215,-2.3467,-2.3444,-2.3417,-2.3377,-2.3353,-2.3319,-2.3275,-2.325,-2.3215,-2.3201,-2.3201,-2.3184,-2.3217,-2.3225,-2.3214,-2.3214,-2.3214,-2.3214,-2.3214,-2.344,-2.3442,-2.3401,-2.3378,-2.3326,-2.3291,-2.3263,-2.3213,-2.3188,-2.3169,-2.3154,-2.3183,-2.3176,-2.3177,-2.3183,-2.3162,-2.3162,-2.3162,-2.3162,-2.3433,-2.3428,-2.3379,-2.3342,-2.3303,-2.3272,-2.322,-2.3183,-2.3144,-2.3126,-2.3126,-2.3132,-2.3135,-2.3126,-2.3128,-2.3133,-2.31,-2.31,-2.31,-2.3414,-2.3404,-2.3367,-2.3332,-2.3289,-2.325,-2.32,-2.3154,-2.311,-2.3096,-2.3111,-2.3113,-2.3123,-2.3128,-2.3115,-2.312,-2.3129,0,0]}]]